Mpanda Airport

Jump to: basic info | weather | comments

Related pages: nearby airports | nearby navaids | notams | map

Basic information (top)

Codes: HTMP
Location: lon -6.350000, lat 31.083000, elev 3,520 ft / 1,073 m msl
Status: small_airport

Weather (top)

Current conditions for Sumbawanga Airport 103nm (191km) SSE (rec'd 2014/08/01 05:00Z):

HTSU 010500Z 12003KT 9999 FEW016 11/06 Q1025

Airport forecast for Julius Nyerere International Airport 485nm (899km) E (rec'd 2014/07/31 00:00Z):

TAF HTDA 312200Z 0100/0206 00000KT 9999 SCT023 SCT070 
      BECMG 0109/0112 12015KT BKN025 FM 011500 00000KT FEW023 SCT080 
      BECMG 0203/0206 21005KT BKN024

Latest comments (top)

re: Uwanja wa ndege Mpanda: Thanks God Mpanda is on the right path, ... [read]

Uwanja wa ndege Mpanda: Uwanja ni mzuri saana, [read]

matengenezo: uwanja ukikamilika utakuwa mzuri.mmejitahidi. [read]

More... (top)

See also NOTAMs and nearby airports and navaids, or visit the Mpanda Airport page at the main OurAirports website..